Location: Unspecified
(17.6330°N, 0.0000°E)
Time: 10:13:04
(UTC+00:00)

A-11 Canister half - Pass Details

Date: 25 June 2019
Orbit: 1514 x 1686 km, 47.2° (Epoch: 24 August)

Event Time Altitude Azimuth Distance (km) Brightness Sun altitude
Rises 18:44:51 0° 301° (WNW) 4,693 14.4 -2.3°
Reaches altitude 10° 18:48:18 10° 292° (WNW) 3,692 13.1 -3.0°
Maximum altitude 18:56:13 33° 233° (SW) 2,346 10.3 -4.7°
Drops below altitude 10° 19:04:07 10° 173° (S) 3,666 10.7 -6.4°
Sets 19:07:35 0° 164° (SSE) 4,656 11.1 -7.1°
